sat.trackr.live / text

‹ back to catalog

STARLINK-34482

NORAD 64782 · 2025-147AD

PAYLOAD ACTIVE UNKNOWN

§ Identity

Operator
Country
US
Launch date
2025-07-08
Launch site
AFETR
Launch vehicle
Mass (kg)
RCS (m²)

Purposes: comms

External: N2YO · Heavens-Above · Gunter

§ Orbital elements

Epoch: 2026-09-20T21:05:01.225824Z

Period
93.85 min
Inclination
53.1588°
Eccentricity
0.0000885
Mean motion
15.34403657 rev/d
Perigee alt
462.1 km
Apogee alt
463.3 km
Semi-major
6,840.8 km
B*
5.2335e-4
RAAN
52.0259°
Arg perigee
94.2476°
Mean anomaly
265.8628°
Rev number
6,873

§ Raw data

STARLINK-344821 64782U 25147AD  26263.87848641  .00017349  00000+0  52335-3 0  99952 64782  53.1588  52.0259 0000885  94.2476 265.8628 15.34403657 68734

JSON: /api/v1/satellites/64782 · /tle

For live sub-satellite position, see the globe view (requires WebGL).

§ Visibility from observer

Set your observer location to see the next 7 days of passes ≥ 10°. The values pass through the URL so the page stays shareable.

No JS? Fill the form by hand. The geolocation button needs JavaScript.